User: anonymous   Login
Location: Buckenweiler
(49.0667°N, 10.2500°E)
Time: 23:31:49
(UTC+00:00)
Language:

Cosmos 1500 Rocket - Orbit

View from above orbital plane
View from above orbital plane
View from above satellite
View from above satellite

Ground track
Ground track

The orbit is defined by the following mean orbital elements,

1 14373U          26065.47970316 +.00000000 +00000-0 +76647-4 0 00001
2 14373  82.5412 145.5698 0020205 145.1611 215.0933 14.86229865    02
Epoch (UTC): 06 March 2026 11:30:46
Eccentricity: 0.0020205
inclination: 82.5412°
perigee height: 596 km
apogee height: 624 km
right ascension of ascending node: 145.5698°
argument of perigee: 145.1611°
revolutions per day: 14.86229865
mean anomaly at epoch: 215.0933°

The dashed part of the orbit path shows where the satellite is in the earth's shadow,  

DLR